Lid_Strength_Index
-0 -1 -1 -1 -1 -1 -1 -0 -2 -0 -1 1 0 -0 -0 -0 -0 2 4 2 1 -0 2 5 7 6 7 8 7 8 12 13 12 12 12 10 11 10 8 8 7 7 7 6 4
-0 -0 -1 -1 -1 -1 -1 -1 -1 -2 -2 -2 0 0 -0 0 3 5 1 -2 -2 -2 4 6 8 6 10 9 8 10 14 12 10 11 11 10 10 10 9 8 9 8 6 4 4
-0 -0 -1 -1 -2 -1 -1 -1 -1 -0 -1 -1 -2 -1 0 2 7 7 -0 -1 -2 -1 3 4 5 7 10 11 9 10 13 11 10 9 9 10 11 9 10 11 9 8 6 4 5
-0 -0 -1 -1 -1 -1 -2 -1 -1 -0 0 -1 -1 -0 -1 3 17 5 -0 -1 -1 1 3 5 6 8 11 12 11 11 9 10 9 9 9 10 10 11 10 10 9 7 5 4 5
-1 -1 -1 -1 -1 -1 -1 -1 -1 -1 -1 -0 -1 -1 1 6 6 3 0 0 2 4 5 6 7 8 10 10 10 11 11 10 9 9 9 9 10 10 9 9 6 6 4 5 4
-1 -1 -1 -1 -0 -0 -1 -1 -1 -1 -1 -1 -0 -1 3 10 2 1 2 3 4 5 6 6 7 7 9 10 11 10 11 11 10 10 9 10 10 9 8 8 7 5 5 5 4
-1 -1 -1 -1 -1 0 -0 -0 -1 -1 -1 -1 -1 0 5 7 1 0 1 3 3 4 6 5 6 7 8 10 8 9 10 10 10 10 10 8 11 10 8 9 8 6 6 5 4
-1 -1 -1 -1 -1 -1 -0 0 -0 -1 -1 -1 -1 1 7 2 2 2 1 2 2 2 4 4 4 6 9 8 9 11 11 14 11 9 9 9 14 11 8 8 8 8 7 5 5
-1 -1 -1 -1 -1 -1 -1 -1 -0 0 -0 -1 1 3 8 1 4 3 1 3 2 2 3 3 5 8 9 11 13 13 17 15 13 9 10 10 13 10 9 8 8 8 8 7 7
-0 -1 -1 -1 -1 -1 -1 -1 -1 1 2 1 2 7 6 8 4 3 2 2 4 4 6 6 8 11 12 14 18 16 16 14 15 13 11 12 11 10 9 10 9 9 9 9 9
-0 -1 -2 -1 -1 -1 1 3 7 6 5 8 7 7 7 5 3 4 2 3 4 6 11 9 12 14 12 11 14 14 15 16 15 12 13 13 13 11 10 10 10 10 10 10 10
-0 -1 -1 -1 -1 -1 2 6 6 5 9 5 5 4 5 4 7 5 2 7 8 11 9 11 13 10 9 10 11 13 14 16 14 13 14 14 14 13 12 12 10 9 10 10 10
-1 0 -2 -2 -2 0 4 4 2 2 8 7 6 6 6 5 7 7 4 6 9 11 11 12 11 9 10 11 13 13 14 15 15 13 14 15 15 14 12 12 11 11 10 10 9
-1 -1 -2 -2 1 2 5 2 2 2 12 11 8 7 5 5 8 5 3 6 9 11 11 11 9 10 11 12 11 15 12 12 12 14 17 15 20 17 15 14 13 11 11 10 9
-1 -1 -1 -2 3 4 4 2 1 3 20 11 9 3 5 8 7 7 3 6 10 11 10 13 11 12 13 12 10 13 10 11 12 14 16 17 18 18 16 16 15 13 11 10 8
-1 -2 -1 0 2 2 0 1 4 13 19 12 9 9 9 8 8 7 7 5 6 10 10 11 9 9 10 9 9 9 11 11 12 14 20 16 17 21 17 14 13 12 12 10 10
-1 -1 -0 -0 4 0 -0 3 13 17 11 14 12 10 10 11 10 9 10 11 13 15 15 12 11 10 9 12 10 10 13 19 20 20 20 19 18 17 16 13 12 11 11 11 11
-1 -1 -1 0 0 0 2 9 17 16 16 10 10 10 12 10 10 10 11 13 10 11 14 16 17 12 10 12 13 12 13 17 22 21 20 17 19 18 14 12 11 11 11 11 11
-1 2 2 1 -0 1 6 14 15 12 11 12 11 13 13 11 11 11 12 12 10 10 14 15 15 12 10 9 9 13 15 12 16 23 21 18 17 15 14 14 12 12 12 11 10
2 3 4 1 0 3 9 12 12 9 9 10 14 12 14 13 13 13 13 10 10 9 9 12 16 12 11 9 9 11 10 16 16 22 25 20 19 18 16 13 12 12 11 11 10
3 6 4 0 2 6 13 12 10 8 8 11 12 13 13 13 13 13 12 10 9 9 8 11 13 14 11 13 13 13 14 13 13 16 21 23 21 16 14 13 13 12 12 11 11
4 9 3 1 9 9 11 11 8 9 8 9 10 10 12 12 13 13 13 11 8 8 12 10 13 16 14 12 9 10 12 12 16 17 16 18 18 15 15 14 13 12 12 11 10
7 6 1 2 12 11 11 9 8 9 9 9 11 10 10 11 14 12 11 8 8 9 11 10 14 17 16 14 11 13 11 11 11 14 16 18 17 13 14 14 13 13 12 11 11
7 10 7 5 10 11 11 11 11 8 9 9 9 8 10 12 11 13 12 10 8 8 7 8 13 15 17 15 13 15 13 11 12 16 15 15 14 14 14 13 12 12 11 12 11
8 12 10 12 10 13 9 10 11 12 8 8 10 10 11 13 13 13 11 10 9 8 9 10 15 13 13 13 12 13 13 13 14 13 16 13 13 12 10 11 12 12 12 12 11
11 9 8 12 8 11 10 11 11 10 10 11 11 10 10 12 11 13 12 11 11 9 10 9 14 13 15 13 12 14 13 12 12 12 13 12 12 10 9 10 11 11 11 11 11
7 7 8 8 11 11 12 12 10 9 8 8 9 9 10 10 8 8 7 8 9 10 11 11 13 15 17 13 14 17 14 13 12 11 11 14 11 8 8 9 10 10 11 10 9